Location: Salillas
(41.9950°N, 0.2228°W)
Time: 08:48:29
(UTC+00:00)

Cosmos 2297 - Pass Details

Date: 29 March 2020
Orbit: 834 x 860 km, 71.0° (Epoch: 03 June)

Event Time Altitude Azimuth Distance (km) Brightness Sun altitude
Rises 19:09:23 0° 341° (NNW) 3,405 7.3 -9.2°
Reaches altitude 10° 19:11:57 10° 347° (NNW) 2,471 6.5 -9.7°
Maximum altitude 19:17:22 44° 60° (ENE) 1,152 4.1 -10.6°
Enters shadow 19:22:21 12° 130° (SE) 2,318 5.4 -11.5°
